TimeEST,TemperatureF,Dew PointF,Humidity,Sea Level PressureIn,VisibilityMPH,Wind Direction,Wind SpeedMPH,Gust SpeedMPH,PrecipitationIn,Events,Conditions,WindDirDegrees,DateUTC
12:55 AM,57.9,57.6,99,30.06,10.0,North,4.6,-,N/A,,Clear,10,2012-11-21 05:55:00
1:55 AM,58.1,57.7,99,30.04,10.0,NNE,3.5,-,N/A,,Clear,20,2012-11-21 06:55:00
2:55 AM,57.4,57.2,99,30.04,10.0,NNE,3.5,-,N/A,,Clear,30,2012-11-21 07:55:00
3:55 AM,56.1,55.8,99,30.05,10.0,NNE,4.6,-,N/A,,Clear,20,2012-11-21 08:55:00
4:55 AM,57.0,56.8,99,30.06,10.0,North,6.9,-,N/A,,Partly Cloudy,10,2012-11-21 09:55:00
5:55 AM,58.8,58.5,99,30.06,10.0,NNE,4.6,-,N/A,,Overcast,20,2012-11-21 10:55:00
6:55 AM,57.7,55.4,92,30.08,10.0,NNE,5.8,-,N/A,,Partly Cloudy,30,2012-11-21 11:55:00
7:55 AM,59.5,56.3,89,30.09,10.0,NNE,5.8,-,N/A,,Clear,20,2012-11-21 12:55:00
8:55 AM,64.9,56.1,73,30.10,10.0,NNE,5.8,-,N/A,,Clear,30,2012-11-21 13:55:00
9:55 AM,68.2,55.4,64,30.12,10.0,NE,9.2,-,N/A,,Partly Cloudy,50,2012-11-21 14:55:00
10:55 AM,71.8,55.8,57,30.11,10.0,NNE,8.1,-,N/A,,Clear,20,2012-11-21 15:55:00
11:55 AM,72.5,54.1,52,30.09,10.0,North,11.5,-,N/A,,Partly Cloudy,360,2012-11-21 16:55:00
12:55 PM,74.7,52.5,46,30.06,10.0,NNE,8.1,-,N/A,,Partly Cloudy,20,2012-11-21 17:55:00
1:55 PM,76.1,50.0,40,30.03,10.0,North,9.2,-,N/A,,Clear,360,2012-11-21 18:55:00
2:55 PM,74.3,55.8,52,30.02,10.0,NNW,11.5,-,N/A,,Clear,330,2012-11-21 19:55:00
3:55 PM,71.2,55.6,58,30.02,10.0,NNW,12.7,20.7,N/A,,Clear,340,2012-11-21 20:55:00
4:55 PM,69.1,56.5,64,30.03,10.0,NNW,9.2,17.3,N/A,,Clear,340,2012-11-21 21:55:00
5:55 PM,65.5,55.0,69,30.04,10.0,North,8.1,-,N/A,,Clear,360,2012-11-21 22:55:00
6:55 PM,63.7,55.4,74,30.06,10.0,North,8.1,-,N/A,,Clear,360,2012-11-21 23:55:00
7:55 PM,62.6,56.7,81,30.08,10.0,North,6.9,-,N/A,,Clear,10,2012-11-22 00:55:00
8:55 PM,62.2,57.7,85,30.09,10.0,North,6.9,-,N/A,,Clear,10,2012-11-22 01:55:00
9:55 PM,61.5,57.9,88,30.10,10.0,North,6.9,-,N/A,,Clear,10,2012-11-22 02:55:00
10:55 PM,61.7,58.1,88,30.12,10.0,NE,4.6,-,N/A,,Clear,40,2012-11-22 03:55:00
11:55 PM,57.6,55.2,92,30.12,10.0,NE,4.6,-,N/A,,Clear,50,2012-11-22 04:55:00